Waterville, ME

11:00 AM EDT on September 30, 2016 (GMT -0400)
Waterville Lafleur

Weather History for KWVL - March, 2012

Change the Weather History Date:

Wednesday, March 28, 2012

  Actual Average Record
Temperature  
Mean Temperature 30 °F -  
Max Temperature 33 °F 49 °F 70 °F (1993)
Min Temperature 28 °F 25 °F 5 °F (1982)
Degree Days  
Heating Degree Days 34    
Moisture  
Dew Point 23 °F    
Average Humidity 77    
Maximum Humidity 100    
Minimum Humidity 32    
Precipitation  
Precipitation 0.02 in - - ()
Sea Level Pressure  
Sea Level Pressure 29.92 in    
Wind  
Wind Speed 3 mph (South)    
Max Wind Speed 10 mph    
Max Gust Speed 17 mph    
Visibility 9 miles    
Events      
Averages and records for this station are not official NWS values.
T = Trace of Precipitation, MM = Missing Value Source: NWS Daily Summary

Daily Weather History Graph

Daily Weather History Graph

Search for Another Location

Airport or City:

Trip Planner

Search our weather history database for the weather conditions in past years. The results will help you decide how hot, cold, wet, or windy it might be!

Date:

Astronomy

Mar. 28, 2012 Rise Set
Actual Time 6:26 AM EDT 7:01 PM EDT
Civil Twilight 5:56 AM EDT 7:31 PM EDT
Nautical Twilight 5:22 AM EDT 8:05 PM EDT
Astronomical Twilight 4:46 AM EDT 8:41 PM EDT
Moon 9:28 AM EDT (3/28) 12:12 AM EDT (3/28)
Length of Visible Light 13h 34m
Length of Day
12h 35m
Waxing Crescent, 30% of the Moon is Illuminated
Mar 28
Waxing Crescent
Mar 30
First Quarter
Apr 6
Full
Apr 13
Last Quarter
Apr 21
New

Hourly Weather History & Observations

Time (EDT) Temp. Windchill Dew Point Humidity Pressure Visibility Wind Dir Wind Speed Gust Speed Precip Events Conditions
12:15 AM 32.0 °F 27.5 °F 5.0 °F 32% 30.09 in 10.0 mi WNW 4.6 mph - N/A   Partly Cloudy
12:55 AM 32.0 °F 28.7 °F 5.0 °F 32% 30.08 in 10.0 mi WSW 3.5 mph - N/A   Mostly Cloudy
1:15 AM 32.0 °F - 5.0 °F 32% 30.05 in 10.0 mi Calm Calm - N/A   Mostly Cloudy
1:35 AM 30.2 °F - 6.8 °F 37% 30.05 in 10.0 mi Calm Calm - N/A   Mostly Cloudy
1:55 AM 30.2 °F - 6.8 °F 37% 30.04 in 10.0 mi Calm Calm - N/A   Scattered Clouds
2:15 AM 30.2 °F - 8.6 °F 40% 30.06 in 10.0 mi Calm Calm - N/A   Mostly Cloudy
2:35 AM 30.2 °F - 8.6 °F 40% 30.06 in 10.0 mi Calm Calm - N/A   Mostly Cloudy
2:55 AM 30.2 °F - 6.8 °F 37% 30.06 in 10.0 mi Calm Calm - N/A   Overcast
3:15 AM 30.2 °F - 8.6 °F 40% 30.06 in 10.0 mi Calm Calm - N/A   Overcast
3:35 AM 30.2 °F 26.7 °F 10.4 °F 44% 30.06 in 10.0 mi West 3.5 mph - N/A   Overcast
3:55 AM 32.0 °F 25.6 °F 10.4 °F 41% 30.06 in 10.0 mi West 6.9 mph - N/A   Mostly Cloudy
4:15 AM 30.2 °F 21.3 °F 15.8 °F 55% 30.06 in 5.0 mi WSW 10.4 mph 17.3 mph N/A   Overcast
4:35 AM 28.4 °F 22.2 °F 24.8 °F 86% 30.06 in 6.0 mi West 5.8 mph - N/A   Overcast
4:55 AM 28.4 °F 24.6 °F 26.6 °F 93% 30.05 in 7.0 mi WSW 3.5 mph - N/A   Overcast
5:16 AM 28.4 °F - 26.6 °F 93% 30.04 in 1.8 mi Calm Calm - N/A   Overcast
5:35 AM 28.4 °F - 26.6 °F 93% 30.04 in 3.0 mi Calm Calm - N/A   Overcast
5:55 AM 28.4 °F - 26.6 °F 93% 30.03 in 8.0 mi Calm Calm - N/A   Mostly Cloudy
6:15 AM 28.4 °F - 26.6 °F 93% 30.02 in 5.0 mi Calm Calm - N/A   Overcast
6:35 AM 28.4 °F - 26.6 °F 93% 30.01 in 10.0 mi Calm Calm - N/A   Overcast
6:55 AM 28.4 °F - 26.6 °F 93% 30.01 in 10.0 mi Calm Calm - N/A   Overcast
7:15 AM 28.4 °F - 26.6 °F 93% 30.00 in 10.0 mi Calm Calm - N/A   Overcast
7:35 AM 28.4 °F - 26.6 °F 93% 29.99 in 10.0 mi Calm Calm - N/A   Overcast
7:55 AM 28.4 °F 23.3 °F 26.6 °F 93% 29.98 in 10.0 mi South 4.6 mph - N/A   Overcast
8:15 AM 28.4 °F 23.3 °F 28.4 °F 100% 29.98 in 10.0 mi SSW 4.6 mph - N/A   Overcast
8:35 AM 28.4 °F 22.2 °F 26.6 °F 93% 29.96 in 10.0 mi South 5.8 mph - N/A   Overcast
8:55 AM 28.4 °F 24.6 °F 26.6 °F 93% 29.95 in 10.0 mi South 3.5 mph - N/A   Overcast
9:15 AM 30.2 °F 26.7 °F 26.6 °F 86% 29.93 in 10.0 mi South 3.5 mph - N/A   Overcast
9:35 AM 30.2 °F 24.3 °F 28.4 °F 93% 29.93 in 10.0 mi South 5.8 mph - N/A   Overcast
9:55 AM 30.2 °F 26.7 °F 28.4 °F 93% 29.92 in 10.0 mi South 3.5 mph - N/A   Overcast
10:15 AM 30.2 °F 24.3 °F 28.4 °F 93% 29.92 in 10.0 mi South 5.8 mph - N/A   Overcast
10:35 AM 32.0 °F 26.4 °F 28.4 °F 87% 29.91 in 10.0 mi SSW 5.8 mph - N/A   Overcast
10:55 AM 32.0 °F 26.4 °F 26.6 °F 80% 29.89 in 10.0 mi South 5.8 mph - N/A   Overcast
11:15 AM 32.0 °F 25.6 °F 26.6 °F 80% 29.89 in 10.0 mi South 6.9 mph - N/A   Overcast
11:35 AM 32.0 °F 27.5 °F 26.6 °F 80% 29.87 in 10.0 mi South 4.6 mph - N/A   Overcast
11:55 AM 32.0 °F 24.8 °F 26.6 °F 80% 29.86 in 6.0 mi South 8.1 mph - N/A   Overcast
12:15 PM 30.2 °F - 26.6 °F 86% 29.84 in 2.0 mi Calm Calm - N/A   Overcast
12:35 PM 30.2 °F 26.7 °F 28.4 °F 93% 29.81 in 10.0 mi SE 3.5 mph - N/A   Overcast
12:55 PM 32.0 °F - 30.2 °F 93% 29.79 in 0.8 mi Calm Calm - N/A   Overcast
1:15 PM 32.0 °F 28.7 °F 30.2 °F 93% 29.77 in 4.0 mi SSE 3.5 mph - 0.01 in   Overcast
1:35 PM 33.8 °F 28.6 °F 30.2 °F 87% 29.76 in 10.0 mi SE 5.8 mph - 0.01 in   Overcast
1:55 PM 33.8 °F 29.6 °F 30.2 °F 87% 29.75 in 10.0 mi SE 4.6 mph - 0.01 in   Overcast
2:15 PM 33.8 °F - 30.2 °F 87% 29.75 in 10.0 mi Calm Calm - N/A   Overcast
2:55 PM 33.8 °F - 30.2 °F 87% 29.74 in 5.0 mi Calm Calm - N/A   Overcast
3:15 PM 33.8 °F 30.8 °F 30.2 °F 87% 29.71 in 10.0 mi SSE 3.5 mph - N/A   Overcast
3:35 PM 33.8 °F 27.7 °F 30.2 °F 87% 29.69 in 9.0 mi South 6.9 mph - 0.01 in   Overcast
4:15 PM 33.8 °F 30.8 °F 30.2 °F 87% 29.68 in 10.0 mi SE 3.5 mph - N/A   Overcast
4:35 PM 33.8 °F 29.6 °F 30.2 °F 87% 29.67 in 7.0 mi SSE 4.6 mph - N/A   Overcast
4:55 PM 33.8 °F 30.8 °F 32.0 °F 93% 29.66 in 10.0 mi SE 3.5 mph - N/A   Overcast
5:15 PM 33.8 °F 30.8 °F 32.0 °F 93% 29.65 in 10.0 mi ESE 3.5 mph - N/A   Overcast
5:35 PM 33.8 °F - 32.0 °F 93% 29.64 in 10.0 mi Calm Calm - N/A   Overcast
5:55 PM 33.8 °F 30.8 °F 32.0 °F 93% 29.62 in 10.0 mi ESE 3.5 mph - N/A   Overcast
6:15 PM 33.8 °F - 32.0 °F 93% 29.62 in 10.0 mi Calm Calm - N/A   Overcast
6:35 PM 33.8 °F - 32.0 °F 93% 29.62 in 9.0 mi Calm Calm - N/A   Overcast
6:55 PM 33.8 °F - 33.8 °F 100% 29.63 in 10.0 mi Calm Calm - N/A   Overcast
7:15 PM 33.8 °F 30.8 °F 32.0 °F 93% 29.63 in 10.0 mi NE 3.5 mph - N/A   Overcast
7:35 PM 33.8 °F 29.6 °F 32.0 °F 93% 29.62 in 4.0 mi NE 4.6 mph - 0.01 in   Overcast
7:55 PM 33.8 °F - 32.0 °F 93% 29.62 in 5.0 mi Calm Calm - 0.02 in   Overcast
8:15 PM 33.8 °F 28.6 °F 32.0 °F 93% 29.62 in 3.0 mi NE 5.8 mph - 0.01 in   Overcast
8:35 PM 32.0 °F 26.4 °F 32.0 °F 100% 29.61 in 3.0 mi NNE 5.8 mph - 0.02 in   Overcast
8:55 PM 32.0 °F 25.6 °F 32.0 °F 100% 29.61 in 5.0 mi NNE 6.9 mph - 0.02 in   Overcast
9:15 PM 32.0 °F 26.4 °F 32.0 °F 100% 29.61 in 4.0 mi NNE 5.8 mph - N/A   Overcast
9:35 PM 32.0 °F 25.6 °F 32.0 °F 100% 29.61 in 5.0 mi NNE 6.9 mph - N/A   Overcast
9:55 PM 32.0 °F 26.4 °F 32.0 °F 100% 29.60 in 5.0 mi NNE 5.8 mph - 0.01 in   Overcast
10:15 PM 32.0 °F 25.6 °F 32.0 °F 100% 29.59 in 5.0 mi NNE 6.9 mph - N/A   Overcast
10:35 PM 32.0 °F 25.6 °F 32.0 °F 100% 29.59 in 4.0 mi NNE 6.9 mph - N/A   Overcast
10:55 PM 32.0 °F 25.6 °F 32.0 °F 100% 29.59 in 10.0 mi NNE 6.9 mph - N/A   Overcast
11:15 PM 32.0 °F 24.8 °F 32.0 °F 100% 29.59 in 10.0 mi NNE 8.1 mph - N/A   Overcast
11:35 PM 32.0 °F 24.8 °F 32.0 °F 100% 29.59 in 10.0 mi NNE 8.1 mph - N/A   Overcast
11:55 PM 32.0 °F 25.6 °F 32.0 °F 100% 29.58 in 5.0 mi NNE 6.9 mph - 0.01 in   Overcast